User: anonymous   Login
Location: Unspecified
(0.0000°N, 0.0000°E)
Time: 00:55:17
(UTC+00:00)
Language:

FORMOSAT 3D - Orbit

View from above orbital plane
View from above orbital plane
View from above satellite
View from above satellite

Ground track
Ground track

The orbit data is extracted from the following two-line orbital elements,

1 29050U 06011D   17324.32234758  .00000240  00000-0  61099-4 0  9990
2 29050  72.0153 188.8307 0051721 234.4189 125.2138 14.58589355619335
Epoch (UTC): 20 November 2017 07:44:10
Eccentricity: 0.0051721
inclination: 72.0153°
perigee height: 661 km
apogee height: 734 km
right ascension of ascending node: 188.8307°
argument of perigee: 234.4189°
revolutions per day: 14.58589355
mean anomaly at epoch: 125.2138°
orbit number at epoch: 61933

The dashed part of the orbit path shows where the satellite is in the earth's shadow,  

DLR